This demonstration page uses our WeatherBlox Daily Observations layout. Learn more.

Left ArrowRight Arrow

Hourly Observations for January 25, 2016

Temp ( °F °C ) Dew Point ( °F °C ) Humidity (%) Winds ( mph kmh ) Pressure ( in mb ) Visibility ( mi km ) Precip ( " mm )
12:51 am 00:51 Clear 37 2.8 25 -3.9 62 62 N N/A 29.97 1015 10 16 N/A
1:51 am 01:51 Clear 35 1.7 25 -3.9 67 67 SSE 6 9 29.97 1015 10 16 N/A
2:51 am 02:51 Clear 34 1.1 25 -3.9 70 70 ESE 5 7 29.97 1015 10 16 N/A
3:51 am 03:51 Clear 33 0.6 25 -3.9 72 72 SSE 5 7 29.98 1015 10 16 N/A
4:51 am 04:51 Clear 31 -0.6 25 -3.9 79 79 SSE 3 6 29.99 1016 10 16 N/A
5:51 am 05:51 Clear 33 0.6 26 -3.3 75 75 N N/A 30.01 1016 10 16 N/A
6:51 am 06:51 Clear 32 undefined 25 -3.9 75 75 SE 6 9 30.03 1017 10 16 N/A
7:51 am 07:51 Sunny 33 0.6 25 -3.9 72 72 ESE 3 6 30.05 1018 10 16 N/A
8:51 am 08:51 Sunny 38 3.3 26 -3.3 62 62 ESE 5 7 30.04 1017 10 16 N/A
9:51 am 09:51 Sunny 45 7.2 27 -2.8 49 49 ESE 5 7 30.04 1017 10 16 N/A
10:51 am 10:51 Sunny 50 10 28 -2.2 43 43 N N/A 30.04 1017 10 16 N/A
11:51 am 11:51 Sunny 53 11.7 26 -3.3 35 35 NW 6 9 30.02 1017 10 16 N/A
12:51 pm 12:51 Sunny 55 12.8 26 -3.3 33 33 WNW 10 17 29.98 1015 10 16 N/A
1:51 pm 13:51 Sunny 56 13.3 24 -4.4 29 29 WNW 9 15 29.95 1014 10 16 N/A
2:51 pm 14:51 Sunny 57 13.9 24 -4.4 28 28 W 12 19 29.94 1014 10 16 N/A
3:51 pm 15:51 Sunny 59 15 23 -5 25 25 WNW 12 19 29.94 1014 10 16 N/A
4:51 pm 16:51 Sunny 58 14.4 21 -6.1 24 24 W 14 22 29.93 1014 10 16 N/A
5:51 pm 17:51 Clear 53 11.7 23 -5 31 31 WNW 10 17 29.95 1014 10 16 N/A
6:51 pm 18:51 Clear 50 10 23 -5 35 35 N 9 15 29.99 1016 10 16 N/A
7:51 pm 19:51 Clear 47 8.3 23 -5 39 39 WNW 8 13 30.01 1016 10 16 N/A
8:51 pm 20:51 Clear 44 6.7 23 -5 43 43 NW 7 11 30.04 1017 10 16 N/A
9:51 pm 21:51 Clear 42 5.6 20 -6.7 41 41 NW 7 11 30.05 1018 10 16 N/A
10:51 pm 22:51 Clear 40 4.4 22 -5.6 49 49 NW 7 11 30.07 1018 10 16 N/A
11:51 pm 23:51 Clear 39 3.9 19 -7.2 45 45 NNW 6 9 30.08 1019 10 16 N/A

Powered by AerisWeather